Altendorf, метеограме

Altendorf: време по сату
Четвтак, 06 Аугуста
Време Падавине Температура Осећа се Притисак Влажност Ветар
11:00 0 мм +22.7° +23.6° 721.000 мм.ж.с 63% 1 м/с, С
12:00 0 мм +23.9° +24.8° 721.000 мм.ж.с 59% 2 м/с, С
13:00 0 мм +25.1° +25.9° 721.000 мм.ж.с 55% 2 м/с, С
14:00 0 мм +25.2° +26.1° 721.000 мм.ж.с 57% 2 м/с, С
15:00 0 мм +25.2° +26.2° 720.000 мм.ж.с 58% 2 м/с, С
16:00 0 мм +25.3° +26.4° 720.000 мм.ж.с 59% 2 м/с, С
17:00 0.01 мм +23.8° +25.4° 720.000 мм.ж.с 69% 2 м/с, С
18:00 0.01 мм +22.4° +24.2° 720.000 мм.ж.с 78% 1 м/с, С
19:00 0.01 мм +20.9° +23° 720.000 мм.ж.с 87% 1 м/с, СИ
20:00 0 мм +19.5° +21.4° 721.000 мм.ж.с 90% 1 м/с, СИ
21:00 0 мм +18.1° +19.8° 721.000 мм.ж.с 93% 1 м/с, И
22:00 0 мм +16.7° +18.2° 721.000 мм.ж.с 95% 1 м/с, ЈИ
23:00 0 мм +16.3° +17.8° 721.000 мм.ж.с 95% 1 м/с, ЈИ
Петак, 07 Аугуста
Време Падавине Температура Осећа се Притисак Влажност Ветар
00:00 0 мм +16° +17.4° 721.000 мм.ж.с 95% 1 м/с, ЈИ
01:00 0 мм +15.7° +17.1° 721.000 мм.ж.с 95% 1 м/с, ЈИ
02:00 0 мм +15.4° +16.7° 721.000 мм.ж.с 95% 1 м/с, Ј
03:00 0 мм +15.1° +16.4° 721.000 мм.ж.с 94% 1 м/с, Ј
04:00 0 мм +14.9° +16.1° 720.000 мм.ж.с 94% 1 м/с, Ј
05:00 0 мм +16° +17.3° 721.000 мм.ж.с 92% 0 м/с, Ј
06:00 0 мм +17.1° +18.5° 721.000 мм.ж.с 90% 0 м/с, ЈИ
07:00 0 мм +18.2° +19.7° 721.000 мм.ж.с 88% 0 м/с, ЈИ
08:00 0 мм +19.9° +21.3° 721.000 мм.ж.с 81% 0 м/с, С
09:00 0 мм +21.5° +22.9° 721.000 мм.ж.с 74% 1 м/с, С
10:00 0 мм +23.2° +24.5° 721.000 мм.ж.с 67% 1 м/с, С
11:00 0 мм +24.5° +25.7° 721.000 мм.ж.с 63% 1 м/с, С
12:00 0 мм +25.7° +26.9° 721.000 мм.ж.с 59% 2 м/с, С
13:00 0 мм +27° +28.1° 721.000 мм.ж.с 55% 2 м/с, С
14:00 0 мм +27° +28.1° 721.000 мм.ж.с 56% 2 м/с, С
15:00 0 мм +26.9° +28.2° 721.000 мм.ж.с 57% 2 м/с, С
16:00 0 мм +26.9° +28.2° 721.000 мм.ж.с 58% 2 м/с, С
17:00 0.02 мм +25.4° +27.2° 721.000 мм.ж.с 68% 1 м/с, С
18:00 0.02 мм +23.9° +26° 721.000 мм.ж.с 77% 1 м/с, С
19:00 0.02 мм +22.4° +24.7° 721.000 мм.ж.с 86% 1 м/с, С
20:00 0 мм +21.1° +23.2° 721.000 мм.ж.с 88% 1 м/с, СИ
21:00 0 мм +19.8° +21.7° 721.000 мм.ж.с 90% 1 м/с, ЈИ
22:00 0 мм +18.5° +20.3° 721.000 мм.ж.с 93% 1 м/с, ЈИ
23:00 0 мм +18.1° +19.8° 721.000 мм.ж.с 92% 1 м/с, Ј
Субота, 08 Аугуста
Време Падавине Температура Осећа се Притисак Влажност Ветар
00:00 0 мм +17.8° +19.4° 721.000 мм.ж.с 92% 1 м/с, Ј
01:00 0 мм +17.4° +18.9° 721.000 мм.ж.с 91% 1 м/с, Ј
02:00 0 мм +17.1° +18.5° 721.000 мм.ж.с 90% 1 м/с, Ј
03:00 0 мм +16.8° +18.2° 721.000 мм.ж.с 90% 1 м/с, Ј
04:00 0 мм +16.5° +17.8° 721.000 мм.ж.с 89% 1 м/с, Ј
05:00 0 мм +17.7° +19° 721.000 мм.ж.с 87% 1 м/с, Ј
06:00 0 мм +18.8° +20.2° 721.000 мм.ж.с 84% 0 м/с, Ј
07:00 0 мм +19.9° +21.5° 722.000 мм.ж.с 82% 0 м/с, Ј
08:00 0 мм +22° +23.5° 722.000 мм.ж.с 74% 0 м/с, С
09:00 0 мм +24.1° +25.5° 722.000 мм.ж.с 67% 1 м/с, С
10:00 0 мм +26.1° +27.4° 722.000 мм.ж.с 60% 1 м/с, С

Такође

Meteograms hourly weather Мапе времена Преглед времена
Meteograms hourly weather Мапе времена Преглед времена
 
Време у Србији:
О проjекту
© meteoprog.rs 2003-2020.
Meteoprog.ua - погода в Украине 0.0697
sitemap